Bellingham, WA
on Friday, November 23, 2012

Friday
Previous Day Next Day
Daily Summary
 ActualAverageRecord
Temperature
Mean Temperature °F 42°F  
Max Temperature 52°F 48°F 61°F (1995)
Min Temperature 44°F 35°F 10°F (1985)
Degree Days
Heating Degree Days 17 23  
Month to date heating degree days 482  
Cooling Degree Days 0 0  
Month to date cooling degree days 0  
Year to date cooling degree days 42  
Moisture
Dew Point 44°F   
Average Humidity 85    
Maximum Humidity 97    
Minimum Humidity 61    
Precipitation
Precipitation 0.01 in 0.19 in 1.78 in (1975)
Month to date precipitation 4.51  
Year to date precipitation 30.32  
Wind
Wind Speed 11 mph   
Max Wind Speed 18 mph   
Max Gust Speed 30 mph   
Visibility 9 miles   
Events Rain   

Key: T is trace of precipitation, MM is missing value
Source: NWS Daily Summary
Time(PST)TemperatureDew PointHumidity Pressure Visibility Wind DirectionWind SpeedGust SpeedPrecipitationEvents Conditions
12:53 AM 50.0°F 37.0°F 61% 30.14 in 10.0 miles ESE 16.1 mph 29.9 mph 0.00 in Rain Light Rain
1:53 AM 48.9°F 37.9°F 66% 30.12 in 10.0 miles East 12.7 mph 23.0 mph 0.00 in   Overcast
2:53 AM 50.0°F 37.9°F 63% 30.12 in 10.0 miles East 9.2 mph 23.0 mph 0.00 in Rain Light Rain
3:53 AM 48.2°F 39.2°F 71% 30.05 in 10.0 miles SSE 17.3 mph 25.3 mph N/A Rain Light Rain
4:53 AM 50.0°F 39.9°F 68% 30.07 in 10.0 miles SE 15.0 mph 24.2 mph 0.00 in Rain Light Rain
5:53 AM 50.0°F 41.0°F 71% 30.06 in 10.0 miles SE 18.4 mph 27.6 mph 0.00 in Rain Light Rain
6:53 AM 50.0°F 41.0°F 71% 30.06 in 10.0 miles SSE 15.0 mph 26.5 mph 0.00 in Rain Light Rain
7:53 AM 50.0°F 42.1°F 74% 30.06 in 10.0 miles SSE 15.0 mph 25.3 mph 0.00 in   Overcast
8:53 AM 51.1°F 43.0°F 74% 30.07 in 10.0 miles SSE 13.8 mph 19.6 mph 0.00 in   Overcast
9:53 AM 51.1°F 44.1°F 77% 30.07 in 10.0 miles SSE 9.2 mph - 0.00 in   Overcast
10:53 AM 52.0°F 45.0°F 77% 30.08 in 10.0 miles Calm Calm - N/A   Overcast
11:53 AM 50.0°F 46.0°F 86% 30.07 in 5.0 miles South 11.5 mph 20.7 mph 0.00 in Rain Light Rain
12:15 PM 48.2°F 46.4°F 93% 30.04 in 6.0 miles South 9.2 mph - 0.00 in Rain Light Rain
12:53 PM 48.0°F 45.0°F 89% 30.06 in 6.0 miles SSE 9.2 mph 17.3 mph 0.00 in Rain Light Rain
1:44 PM 48.2°F 46.4°F 93% 30.03 in 6.0 miles SSE 12.7 mph - 0.00 in Rain Light Rain
1:53 PM 48.9°F 46.0°F 90% 30.05 in 6.0 miles SSE 11.5 mph 18.4 mph 0.00 in Rain Light Rain
2:53 PM 48.9°F 46.0°F 90% 30.05 in 7.0 miles SSE 11.5 mph 18.4 mph 0.00 in   Overcast
3:34 PM 48.2°F 46.4°F 93% 30.03 in 10.0 miles SSE 10.4 mph - 0.00 in   Overcast
3:53 PM 48.9°F 46.0°F 90% 30.06 in 8.0 miles South 8.1 mph - 0.00 in Rain Light Rain
4:53 PM 48.9°F 46.0°F 90% 30.04 in 10.0 miles South 6.9 mph - 0.00 in Rain Light Rain
5:53 PM 48.0°F 46.0°F 93% 30.04 in 10.0 miles South 3.5 mph - 0.00 in   Overcast
6:53 PM 46.9°F 45.0°F 93% 30.06 in 10.0 miles NE 3.5 mph - 0.00 in   Overcast
7:53 PM 46.0°F 45.0°F 96% 30.06 in 10.0 miles Calm Calm - 0.00 in   Overcast
8:16 PM 44.6°F 42.8°F 93% 30.05 in 10.0 miles Calm Calm - 0.00 in   Mostly Cloudy
8:53 PM 45.0°F 44.1°F 97% 30.09 in 8.0 miles Calm Calm - 0.00 in Rain Light Rain
9:00 PM 46.4°F 44.6°F 93% 30.06 in 10.0 miles South 4.6 mph - 0.00 in Rain Light Rain
9:10 PM 46.4°F 44.6°F 93% 30.06 in 9.0 miles SSE 5.8 mph - 0.00 in Rain Light Rain
9:17 PM 46.4°F 44.6°F 93% 30.06 in 6.0 miles South 5.8 mph - 0.00 in Rain Light Rain
9:53 PM 46.0°F 45.0°F 96% 30.09 in 10.0 miles South 4.6 mph - 0.01 in   Overcast
10:00 PM 46.4°F 44.6°F 93% 30.06 in 10.0 miles SSE 5.8 mph - N/A   Overcast
10:53 PM 46.0°F 44.1°F 93% 30.11 in 10.0 miles South 5.8 mph - N/A   Mostly Cloudy
11:53 PM 44.1°F 42.1°F 93% 30.13 in 10.0 miles South 5.8 mph - N/A   Clear
Moon Phase
Nov. 23 Nov. 28 Dec. 06 Dec. 13 Dec. 20
Sunrise:07:31 AM (PST) Moon Rise:01:55 PM (PST)11/23
Sunset:04:21 PM (PST) Moon Set:02:36 AM (PST)11/23

Copyright © 2014 The Weather Underground, Inc.